STARLINK-35953, 66637

Orbit data source: Space-Track

STARLINK-35953, 66637 is a payload satellite owned by SpaceX/Seattle (US) in LEO that was launched on Sun, 23 Nov 2025 UTC via an FALCON 9 launch vehicle from the Air Force Western Test Range (AFWTR). Payload-class satellites include a variety of spacecraft equipped with specific instruments for various scientific and technological missions. These include communications satellites like Starlink; space stations such as the ISS; scientific satellites like the Hubble; Earth observation satellites from companies like Planet Labs, Umbra, and HawkEye 360; GPS; miniature CubeSats for education and research; and military/defense satellites.

Loading next visibility...
Identifier
66637, 2025-271W
Orbit
LEO
Country
Flag of USUS
Related business
Manufacturer
SpaceX/Seattle
Mission
Operational Commercial Communications
Bus & Motor
STARLINK V2MO, Unknown motor
Mass
575 kg wet, ~530 kg dry
Launch date (UTC)
2025-11-23 (7 months ago)
Launch vehicle
FALCON 9
Launch site
Air Force Western Test Range (AFWTR)
Object type
Payload
Rocket body
Debris
Shape & HBR
Box + 2 Pan, 17.7 m
Radar Cross Section
36.964 m², Large (>1 m²)

Expand to show TLE details & history
Last TLE update: 23 hours ago

TLE from 23 hours ago
0 STARLINK-35953
1 66637U 25271W   26170.87452486  .00021577  00000-0  64757-3 0  9999
2 66637  53.1577  23.0280 0000739  99.2046 260.9041 15.34415352 33249
Epoch: 2026-06-19T20:59Z
TLE epoch observation values (Epoch: 2026-06-19T20:59:18.947Z)
Latitude
0.00002°
Longitude
160.10183°
Altitude
463.639 km
Speed
7.636 km/s
True Right ascension
01h 32m 06s
True Declination
0° 00' 00"
Sunlit
Object was in daylight at epoch
Visualization orbit readout
Latitude
Unknown
Longitude
Unknown
Altitude
Unknown
Speed
Unknown
Apparent Right ascension
Unknown
Apparent Declination
Unknown
Sunlit
N/A
Visualization observer readout
Local Sidereal Time
07:20:42
Azimuth
Unknown
Elevation
Unknown
Doppler factor
Unknown
Orbital elements
Apogee altitude
463.42 km
Perigee altitude
462.409 km
Semi-major axis
6,841.052 km
Eccentricity
0.00007
Inclination
53.1577°
RAAN
23.028°
Arg. of periapsis
99.2046°
True anomaly
260.89574°
Mean anomaly
260.9041°
Eccentric anomaly
260.89992°
Mean motion
3.83583 °/min
Orbital period
93.85 mins
BSTAR
0.00064757
Loading maneuver chart data...
Computing Atmospheric mass density...
Loading historical data...
Loading historical data...
Loading historical data...
Loading historical data...
Loading historical data...
Loading historical data...
Loading historical data...

Documentation

Showing up to 5 results
|